Home > Weather > Koudougou > Past weeks

Flag for Burkina Faso Weather for the Past 2 Weeks in Koudougou, Burkina Faso

Now
88 °F

Clear.


Feels Like: 84 °F
Forecast: 61 / 97 °F
Wind: 8 mph from East

Location: Ouagadougou Airport

Current Time: Feb 14, 2016 at 11:19:49 AM

Latest Report: Feb 14, 2016 at 11:00 AM


Visibility: 5 mi

Pressure: 30.01 "Hg

Humidity: 10%

Dew point: 25 °F

Location of KoudougouLocation

Historic Weather in Koudougou — Graph

°F

Koudougou Temperature Yesterday

Maximum temperature yesterday: 91 °F (at 2:00 PM)
Minimum temperature yesterday: 61 °F (at 6:00 AM)
Average temperature yesterday: 78 °F

High & Low Weather Summary for the Past Weeks

 TemperatureHumidityPressure
High93 °F (Feb 6, 3:00 PM)37% (Feb 8, 7:00 AM)30.12 "Hg (Feb 8, 7:00 AM)
Low61 °F (Feb 1, 6:00 AM)8% (Feb 13, 2:00 PM)29.89 "Hg (Feb 2, 4:00 PM)
Average77 °F19%30.00 "Hg
* Reported Jan 30 10:00 AM — Feb 14 10:00 AM, Koudougou, Weather by CustomWeather, © 2016

Note: Actual official high and low records may vary slightly from our data, if they occured in-between our weather recording intervals... More about our weather records

Advertising

Koudougou Weather History for the Previous 24 Hours

 ConditionsComfort  
Time TempWeatherWind HumidityBarometerVisibility
10:00 AM
Sun, Feb 14
84 °FClear.8 mph11%30.01 "Hg4 mi
9:00 AM81 °FHaze.5 mph12%30.01 "Hg4 mi
8:00 AM73 °FHaze.5 mph17%30.01 "Hg3 mi
7:00 AM64 °FHaze.3 mph26%29.98 "Hg2 mi
6:00 AM64 °FClear.6 mph26%29.95 "Hg5 mi
5:00 AM64 °FClear.6 mph26%29.95 "Hg5 mi
4:00 AM63 °FClear.1 mph30%29.95 "Hg5 mi
3:00 AM66 °FMild.3 mph24%29.95 "HgN/A
2:00 AM68 °FClear.3 mph21%29.98 "Hg10 mi
1:00 AM68 °FClear.3 mph21%29.98 "Hg5 mi
12:00 AM70 °FClear.5 mph21%30.01 "Hg5 mi
11:00 PM
Sat, Feb 13
73 °FClear.5 mph17%30.01 "Hg5 mi
10:00 PM73 °FClear.5 mph17%30.01 "Hg5 mi
9:00 PM75 °FClear.5 mph16%29.98 "Hg5 mi
8:00 PM77 °FClear.5 mph15%29.98 "Hg4 mi
7:00 PM81 °FClear.5 mph13%29.95 "Hg4 mi
6:00 PM86 °FClear.5 mph10%29.92 "Hg4 mi
5:00 PM90 °FClear.8 mph8%29.92 "Hg4 mi
4:00 PM91 °FClear.7 mph8%29.89 "Hg4 mi
3:00 PM91 °FClear.6 mph8%29.89 "Hg4 mi
2:00 PM91 °FClear.7 mph8%29.89 "Hg4 mi
1:00 PM90 °FClear.6 mph9%29.95 "Hg4 mi
12:00 PM90 °FClear.7 mph9%29.98 "Hg4 mi
11:00 AM88 °FClear.12 mph10%30.01 "Hg4 mi
Weather by CustomWeather, © 2016

See weather overviewHow to use our weather pages